FW2998 Weather Reports


time (UTC)temp
F
wind
direction
speed
knots
gust
knots
rain 1hr
in
rain 24hr
in
rain mn
in
humidity
%
barometer
mb
20260504100518 48 0 0.0 0.0 0.00 0.03 0.00 90 1018.2
20260504081538 49 0 0.0 1.7 0.00 0.03 0.00 89 1018.0
20260504081019 49 0 0.0 1.7 0.00 0.03 0.00 89 1018.1
20260504080519 49 0 0.0 0.0 0.00 0.03 0.00 88 1017.9
20260504050519 51 0 0.0 0.0 0.00 0.04 0.00 83 1018.7
20260504045519 51 0 0.0 0.0 0.00 0.04 0.00 82 1018.7
20260504045019 51 0 0.0 0.0 0.00 0.04 0.00 82 1018.7
20260504044543 51 0 0.0 0.0 0.00 0.04 0.00 81 1018.6
20260504044019 51 0 0.0 0.0 0.00 0.04 0.00 80 1018.5
20260504043523 51 0 0.0 0.0 0.00 0.04 0.00 79 1018.5
20260504043036 51 0 0.0 0.0 0.00 0.04 0.00 79 1018.3
20260504042523 52 0 0.0 0.0 0.00 0.04 0.00 79 1018.4
20260504042019 52 0 0.0 0.0 0.00 0.04 0.00 79 1018.4
20260504041536 52 0 0.0 0.0 0.00 0.04 0.00 79 1018.4
20260504041020 52 0 0.0 0.0 0.00 0.04 0.00 78 1018.5
20260504040520 52 0 0.0 0.0 0.00 0.04 0.00 78 1018.5
20260504040058 52 0 0.0 0.0 0.00 0.04 0.00 78 1018.5
20260504035520 52 0 0.0 0.0 0.00 0.04 0.04 77 1018.6
20260504035020 53 0 0.0 0.0 0.00 0.04 0.04 77 1018.5
20260504034553 53 0 0.0 0.0 0.00 0.04 0.04 77 1018.4
20260504034020 53 0 0.0 0.0 0.00 0.04 0.04 77 1018.4
20260504033521 53 0 0.0 0.0 0.00 0.04 0.04 76 1018.4
20260504033037 53 0 0.0 0.0 0.00 0.04 0.04 76 1018.5
20260504032521 53 0 0.0 0.0 0.00 0.04 0.04 76 1018.5
20260504032021 53 0 0.0 0.0 0.00 0.04 0.04 75 1018.5
20260504031536 54 0 0.0 0.0 0.00 0.04 0.04 75 1018.5
20260504031019 54 0 0.0 0.0 0.00 0.04 0.04 74 1018.4
20260504030520 54 0 0.0 0.0 0.00 0.04 0.04 74 1018.5
20260504030039 54 0 0.0 0.0 0.00 0.04 0.04 73 1018.5
20260504025522 54 0 0.0 0.0 0.00 0.04 0.04 73 1018.5
20260504025022 55 0 0.0 0.0 0.00 0.04 0.04 73 1018.5
20260504024535 55 0 0.0 0.0 0.00 0.04 0.04 72 1018.6
20260504024021 55 0 0.0 0.0 0.00 0.04 0.04 71 1018.6
20260504023522 55 0 0.0 0.0 0.00 0.04 0.04 71 1018.6
20260504023039 55 0 0.0 0.0 0.00 0.04 0.04 70 1018.5
20260504022521 56 0 0.0 0.0 0.00 0.04 0.04 69 1018.4
20260504022022 56 0 0.0 0.0 0.00 0.04 0.04 69 1018.4
20260504021538 56 0 0.0 0.0 0.00 0.04 0.04 68 1018.3
20260504021020 56 0 0.0 0.0 0.00 0.04 0.04 68 1018.3
20260504020524 57 0 0.0 0.0 0.00 0.04 0.04 67 1018.1
20260504020036 57 0 0.0 0.0 0.00 0.04 0.04 67 1018.1
20260504015522 57 0 0.0 0.0 0.00 0.04 0.04 66 1018.0
20260504015022 57 0 0.0 0.0 0.00 0.04 0.04 66 1018.0
20260504014536 58 0 0.0 0.0 0.00 0.04 0.04 65 1018.0
20260504014022 58 0 0.0 0.0 0.00 0.04 0.04 65 1017.9
20260504013522 58 0 0.0 0.0 0.01 0.04 0.04 64 1017.8
20260504013046 59 0 0.0 0.0 0.01 0.04 0.04 63 1017.8
20260504012523 59 0 0.0 0.0 0.01 0.04 0.04 63 1017.7
20260504012022 59 0 0.0 0.0 0.01 0.04 0.04 62 1017.7
20260504011537 60 0 0.0 0.0 0.01 0.04 0.04 61 1017.6
20260504011019 60 0 0.0 0.0 0.01 0.04 0.04 60 1017.5
20260504010520 61 0 0.0 0.0 0.01 0.04 0.04 59 1017.4
20260504010035 61 0 0.0 0.0 0.01 0.04 0.04 60 1017.4
20260504005519 61 0 0.0 0.0 0.01 0.04 0.04 58 1017.3
20260504005019 62 0 0.0 0.0 0.01 0.04 0.04 56 1017.2
20260504004532 62 0 0.0 0.0 0.01 0.04 0.04 57 1017.2
20260504004019 63 0 0.0 0.0 0.01 0.04 0.04 56 1017.1
20260504003519 63 0 0.0 0.0 0.00 0.03 0.03 55 1017.1
20260504003036 64 0 0.0 0.0 0.00 0.03 0.03 53 1017.1
20260504002519 64 0 0.0 0.0 0.00 0.03 0.03 53 1017.2
20260504002021 65 0 0.0 0.0 0.00 0.03 0.03 53 1017.1
20260504001536 66 0 0.0 0.0 0.00 0.03 0.03 50 1017.1
20260504001018 66 0 0.0 0.0 0.00 0.03 0.03 49 1017.1
20260504000518 67 0 0.0 0.0 0.00 0.03 0.03 49 1016.9
20260504000036 67 0 0.0 0.0 0.00 0.03 0.03 49 1016.8
20260503235518 68 0 0.0 0.0 0.00 0.03 0.03 47 1016.8
20260503235019 68 0 0.0 0.0 0.00 0.03 0.03 46 1016.9
20260503234535 69 0 0.0 0.9 0.00 0.03 0.03 46 1016.8
20260503234019 69 0 0.0 0.9 0.00 0.03 0.03 45 1016.8
20260503233517 69 0 0.0 0.9 0.00 0.03 0.03 44 1016.8
20260503233040 70 0 0.0 0.0 0.00 0.03 0.03 43 1016.8
20260503232520 70 0 0.0 1.7 0.00 0.03 0.03 43 1016.8
20260503232019 70 0 0.0 1.7 0.00 0.03 0.03 42 1016.8
20260503231536 71 0 0.0 1.7 0.00 0.03 0.03 42 1016.9
20260503231017 71 0 0.0 1.7 0.00 0.03 0.03 43 1016.9
20260503230520 72 304 0.0 1.7 0.00 0.03 0.03 41 1016.9
20260503230037 72 0 0.0 1.7 0.00 0.03 0.03 40 1016.9
20260503225520 72 0 0.0 1.7 0.00 0.04 0.03 39 1016.8
20260503225019 73 0 0.0 1.7 0.00 0.04 0.03 39 1017.0
20260503224536 73 0 0.0 1.7 0.00 0.04 0.03 39 1017.0
20260503224019 73 0 0.0 1.7 0.00 0.04 0.03 40 1017.0
20260503223519 73 0 0.0 0.9 0.00 0.04 0.03 39 1017.0
20260503223036 74 0 0.0 3.5 0.00 0.04 0.03 39 1017.0
20260503222518 74 0 0.0 3.5 0.00 0.04 0.03 39 1016.9
20260503222020 74 0 0.0 3.5 0.00 0.04 0.03 39 1017.0
20260503221543 74 0 0.9 3.5 0.00 0.04 0.03 37 1016.9
20260503221020 74 0 0.0 3.5 0.00 0.04 0.03 39 1017.0
20260503220520 74 0 0.0 2.6 0.00 0.04 0.03 39 1017.0
20260503220040 74 0 0.0 5.2 0.00 0.04 0.03 38 1017.0
20260503215521 74 0 0.9 5.2 0.00 0.04 0.03 38 1017.1
20260503215025 74 294 0.9 5.2 0.00 0.04 0.03 38 1017.1
20260503214539 74 286 0.9 6.1 0.00 0.04 0.03 38 1017.2
20260503214022 74 290 0.9 7.8 0.00 0.04 0.03 37 1017.0
20260503213525 74 0 2.6 7.8 0.00 0.04 0.03 36 1017.1
20260503213043 75 265 0.9 7.8 0.00 0.04 0.03 36 1017.0
20260503212521 75 0 0.0 7.0 0.00 0.04 0.03 37 1017.1
20260503212021 75 0 0.9 7.0 0.00 0.04 0.03 37 1017.2
20260503211537 75 0 0.9 5.2 0.00 0.04 0.03 37 1017.1
20260503211021 75 292 0.0 2.6 0.00 0.04 0.03 37 1017.1
20260503210525 75 281 0.0 4.3 0.00 0.04 0.03 36 1017.1
20260503210039 75 0 0.0 4.3 0.00 0.04 0.03 37 1017.2
20260503205522 75 0 0.0 5.2 0.00 0.04 0.03 38 1017.3
20260503205023 75 0 0.0 5.2 0.00 0.04 0.03 38 1017.2
20260503204546 75 0 0.9 5.2 0.00 0.04 0.03 38 1017.3
20260503204022 75 257 0.0 6.1 0.00 0.04 0.03 37 1017.3
20260503203522 75 277 0.9 6.1 0.00 0.04 0.03 36 1017.3
20260503203042 75 0 0.9 6.1 0.00 0.04 0.03 36 1017.5
20260503202522 75 0 0.9 5.2 0.00 0.04 0.03 38 1017.5
20260503202021 75 0 0.0 7.0 0.00 0.04 0.03 37 1017.6
20260503201539 74 0 0.9 7.0 0.00 0.04 0.03 36 1017.6
20260503201024 75 0 0.9 6.1 0.00 0.04 0.03 36 1017.8
20260503200520 74 0 0.0 1.7 0.01 0.04 0.03 37 1017.7
20260503200037 74 0 0.0 3.5 0.01 0.04 0.03 38 1017.8
20260503195519 74 0 0.0 7.0 0.01 0.04 0.03 38 1018.0
20260503195020 73 280 1.7 7.0 0.01 0.04 0.03 35 1018.1
20260503194538 74 279 0.9 6.1 0.01 0.04 0.03 36 1018.1
20260503194020 73 0 0.0 7.8 0.01 0.04 0.03 38 1018.1
20260503193522 73 0 2.6 7.8 0.01 0.04 0.03 36 1018.2
20260503193036 73 224 0.0 6.1 0.01 0.04 0.03 38 1018.4
20260503192521 73 94 0.0 6.1 0.01 0.04 0.03 37 1018.4
20260503192018 73 261 0.0 7.8 0.01 0.04 0.03 38 1018.5
20260503191538 73 291 1.7 7.8 0.01 0.04 0.03 37 1018.6
20260503191021 73 71 0.9 7.8 0.00 0.03 0.02 35 1018.8
20260503190523 73 66 0.9 5.2 0.00 0.03 0.02 35 1018.8
20260503190049 73 0 0.9 5.2 0.00 0.03 0.02 35 1018.9
20260503185520 72 0 0.0 4.3 0.00 0.04 0.02 36 1019.1
20260503185020 72 0 0.9 8.7 0.00 0.04 0.02 34 1019.2
20260503184536 72 252 1.7 8.7 0.00 0.04 0.02 36 1019.3
20260503184019 72 288 1.7 8.7 0.00 0.04 0.02 34 1019.2
20260503183518 72 0 0.0 3.5 0.00 0.04 0.02 36 1019.3
20260503183042 72 271 0.0 3.5 0.00 0.04 0.02 37 1019.3
20260503182519 72 272 0.0 3.5 0.00 0.04 0.02 37 1019.5
20260503182019 72 0 0.0 5.2 0.00 0.04 0.02 36 1019.5
20260503181536 72 0 0.9 8.7 0.00 0.04 0.02 35 1019.5
20260503181022 72 0 0.9 8.7 0.00 0.04 0.02 37 1019.7
20260503180522 72 177 0.9 4.3 0.00 0.04 0.02 37 1019.6
20260503180039 72 113 0.0 3.5 0.00 0.04 0.02 39 1019.7
20260503175523 72 0 0.0 8.7 0.00 0.04 0.02 38 1019.8
20260503175022 72 249 0.0 8.7 0.00 0.04 0.02 37 1019.9
20260503174539 72 0 1.7 7.0 0.00 0.04 0.02 38 1019.8
20260503174022 72 0 0.0 3.5 0.00 0.04 0.02 39 1019.8
20260503173521 72 0 0.0 3.5 0.00 0.04 0.02 39 1019.8
20260503173056 72 0 0.0 3.5 0.00 0.04 0.02 37 1019.8
20260503172521 71 70 0.0 3.5 0.00 0.04 0.02 40 1019.9
20260503172021 71 0 0.0 7.0 0.00 0.04 0.02 41 1020.1
20260503171542 71 162 0.0 7.0 0.00 0.04 0.02 43 1020.1
20260503171022 71 0 0.9 3.5 0.00 0.04 0.02 40 1020.1
20260503170520 71 94 0.9 3.5 0.00 0.04 0.02 40 1020.1
20260503150521 66 0 0.0 2.6 0.00 0.04 0.02 46 1021.3
20260503131021 54 110 0.0 2.6 0.00 0.03 0.01 94 1020.6
20260503130520 53 0 0.0 2.6 0.00 0.03 0.01 95 1020.6
20260503110520 45 0 0.0 0.0 0.00 0.04 0.01 92 1019.7